Tuesday, June 19, 2018, 12:59 AM EDT
Back to Local

KBAF, Westfield Barnes Municipal

Location: Westfield, MA, United States Lat: 42.167
Local Time: 12:59 AM EDT ( 4:59 GMT) Lon: -72.717
Time Zone: US/Eastern Elev: 272 ft

Show me the last for .
Show Decoded

2018-06-19 00:28 METAR KBAF 190428Z AUTO 17006KT 7SM -RA FEW021 BKN085 OVC110 23/23 A2968 RMK AO2
                 RAB03 PRESFR P0007 T02280228 =
2018-06-19 00:20 METAR KBAF 190420Z AUTO 17006KT 2 1/2SM R20/5000VP6000FT -RA BR FEW025 BKN065
                 OVC100 23/23 A2970 RMK AO2 TWR VIS 5 RAB03 P0007 T02280228 =
2018-06-18 23:53 METAR KBAF 190353Z AUTO 17007KT 7SM FEW025 SCT055 BKN080 22/22 A2972 RMK AO2
                 RAB07E41 SLP060 P0011 T02220222 =
2018-06-18 23:37 METAR KBAF 190337Z AUTO 15006KT 3SM R20/6000VP6000FT -RA BR FEW026 BKN050 OVC075
                 22/22 A2973 RMK AO2 TWR VIS 5 RAB07 P0011 T02220222 =
2018-06-18 23:27 METAR KBAF 190327Z AUTO 00000KT 1 1/2SM R20/5500VP6000FT +RA BR SCT029 BKN048
                 OVC060 23/22 A2974 RMK AO2 TWR VIS 5 RAB07 P0010 T02280222 =
2018-06-18 22:53 METAR KBAF 190253Z AUTO 19006KT 10SM BKN050 22/22 A2974 RMK AO2 SLP068 60074
                 T02220222 50008 =
2018-06-18 22:42 METAR KBAF 190242Z AUTO 18006KT 10SM FEW005 FEW050 22/22 A2974 RMK AO2 T02220222
                 =
2018-06-18 21:53 METAR KBAF 190153Z 18010KT 10SM FEW080 23/22 A2975 RMK AO2 SLP071 T02280222 =
2018-06-18 20:53 METAR KBAF 190053Z 14005KT 10SM FEW100 23/23 A2975 RMK AO2 PK WND 28031/0008 LTG
                 DSNT E AND SE RAB2356E31 TSB2356E41 SLP071 TS S P0074 T02280228 =
2018-06-18 20:28 METAR KBAF 190028Z 19012KT 3SM -TSRA BR SCT013 BKN055 BKN100 23/23 A2976 RMK AO2
                 PK WND 28031/0008 TWR VIS 5 LTG DSNT ALQDS RAB2356 TSB2356 TS S P0074 T02280228
                 =
2018-06-18 20:24 METAR KBAF 190024Z 20010KT 1SM R20/3500VP6000FT -TSRA BR SCT015 BKN055 BKN070
                 23/23 A2976 RMK AO2 PK WND 28031/0008 TWR VIS 5 LTG DSNT ALQDS RAB2356 TSB2356
                 TS S P0074 T02280228 =
2018-06-18 20:20 METAR KBAF 190020Z 22007G23KT 1/4SM R20/1600VP6000FT TSRA FG BKN013 BKN055
                 BKN070 23/23 A2976 RMK AO2 PK WND 28031/0008 TWR VIS 5 LTG DSNT ALQDS RAB2356
                 TSB2356 TS S P0074 T02280228 =
2018-06-18 20:14 METAR KBAF 190014Z VRB04G29KT 1/4SM R20/1600VP6000FT +TSRA FG SCT013 BKN033
                 OVC070 23/23 A2976 RMK AO2 PK WND 28031/0008 LTG DSNT ALQDS RAB2356 TSB2356
                 P0064 T02330228 =
2018-06-18 20:08 METAR KBAF 190008Z 1 1/2SM R20/2400VP6000FT -TSRA BR FEW027 BKN055 OVC110 25/23
                 A2979 RMK AO2 PK WND 28031/0008 LTG DSNT ALQDS RAB2356 TSB2356 PRESRR P0020
                 T02500228 =
2018-06-18 20:02 METAR KBAF 190002Z 16007KT 9SM -TSRA SCT055 BKN070 BKN110 26/23 A2972 RMK AO2
                 LTG DSNT ALQDS RAB2356 TSB2356 P0000 T02610228 =
2018-06-18 19:53 METAR KBAF 182353Z 17007KT 10SM VCTS FEW047 SCT080 SCT100 27/23 A2971 RMK AO2
                 LTG DSNT ALQDS RAB41E53 SLP059 P0000 60000 T02670228 10350 20267 58003 =
2018-06-18 19:18 METAR KBAF 182318Z 18008KT 10SM VCTS FEW040 FEW050 SCT060 28/22 A2974 RMK AO2
                 LTG DSNT E AND SE T02780222 =
2018-06-18 18:53 METAR KBAF 182253Z 18013KT 10SM FEW090 29/22 A2974 RMK AO2 LTG DSNT NE AND E
                 RAB02E11 SLP068 P0000 T02940222 =
2018-06-18 18:33 METAR KBAF 182233Z 20016G20KT 10SM VCTS CLR 30/22 A2973 RMK AO2 LTG DSNT N-E
                 RAB02E11 P0000 T03000222 =
2018-06-18 18:14 METAR KBAF 182214Z 20015G21KT 10SM CLR 31/22 A2972 RMK AO2 LTG DSNT N-E RAB02E11
                 P0000 T03060222 =
2018-06-18 17:53 METAR KBAF 182153Z 20014G22KT 10SM VCTS CLR 31/22 A2972 RMK AO2 LTG DSNT NW-E
                 TSB23E38 SLP062 TS NE T03060222 =
2018-06-18 17:44 METAR KBAF 182144Z 20016G23KT 10SM VCTS CLR 31/22 A2973 RMK AO2 LTG DSNT N-E
                 TSB23E38 TS N T03060222 =
2018-06-18 17:23 METAR KBAF 182123Z 19016G24KT 10SM TS SCT055 BKN065 BKN100 31/22 A2972 RMK AO2
                 LTG DSNT N AND NW TSB23 TS N T03110222 =
2018-06-18 16:53 METAR KBAF 182053Z 20015G24KT 10SM BKN060 32/22 A2975 RMK AO2 SLP070 T03220217
                 56026 =
2018-06-18 15:53 METAR KBAF 181953Z 20018G21KT 10SM CLR 33/22 A2977 RMK AO2 SLP077 T03330217 =
2018-06-18 14:53 METAR KBAF 181853Z 20015G23KT 10SM SCT060 34/22 A2980 RMK AO2 SLP088 T03390217 =
2018-06-18 13:53 METAR KBAF 181753Z 19015KT 10SM FEW060 34/21 A2982 RMK AO2 SLP096 T03390211
                 10344 20206 58028 =
2018-06-18 12:53 METAR KBAF 181653Z 19010KT 10SM CLR 33/21 A2986 RMK AO2 SLP107 T03280211 =
2018-06-18 11:53 METAR KBAF 181553Z 17009KT 10SM CLR 31/21 A2989 RMK AO2 SLP119 T03060211 =
2018-06-18 10:53 METAR KBAF 181453Z 18009KT 10SM CLR 28/20 A2991 RMK AO2 SLP125 T02830200 58020 =
2018-06-18 09:53 METAR KBAF 181353Z 17006KT 10SM CLR 25/19 A2994 RMK AO2 SLP134 T02500189 =
2018-06-18 08:53 METAR KBAF 181253Z 17007KT 10SM CLR 23/18 A2996 RMK AO2 SLP142 T02280178 =
2018-06-18 07:53 METAR KBAF 181153Z 17007KT 10SM CLR 21/17 A2997 RMK AO2 SLP146 T02060167 10206
                 20161 58010 =
2018-06-18 06:53 METAR KBAF 181053Z 16005KT 10SM CLR 19/16 A2998 RMK AO2 SLP149 T01890156 =
2018-06-18 05:53 METAR KBAF 180953Z AUTO 00000KT 10SM CLR 17/14 A2999 RMK AO2 SLP154 T01670144 =
2018-06-18 04:53 METAR KBAF 180853Z AUTO 19003KT 10SM CLR 17/14 A3000 RMK AO2 SLP156 T01720139
                 56011 =
2018-06-18 03:53 METAR KBAF 180753Z AUTO 00000KT 10SM CLR 17/14 A3001 RMK AO2 SLP158 T01720139 =
2018-06-18 02:53 METAR KBAF 180653Z AUTO 18006KT 10SM CLR 18/14 A3001 RMK AO2 SLP161 T01830139 =
2018-06-18 01:53 METAR KBAF 180553Z AUTO 18004KT 10SM CLR 19/13 A3003 RMK AO2 SLP167 T01890133
                 10250 20183 50001 =

Support USWX by starting your Amazon purchase here.